Location: Newark
(44.6768°N, 22.5302°E)
Time: 13:46:50
(UTC+00:00)

UKube-1 - Pass Details

Date: 02 July 2022
Orbit: 608 x 615 km, 98.4° (Epoch: 18 August)

Event Time Altitude Azimuth Distance (km) Brightness Sun altitude
Rises 19:10:42 0° 35° (NE) 2,892 ? -8.0°
Reaches altitude 10° 19:14:23 10° 68° (ENE) 1,977 ? -8.4°
Maximum altitude 19:15:55 12° 89° (E) 1,862 ? -8.6°
Drops below altitude 10° 19:17:28 10° 111° (ESE) 1,969 ? -8.8°
Enters shadow 19:17:40 10° 113° (ESE) 2,000 ? -8.9°
